Location: C.E.K. Mees Observatory
(42.7003°N, 77.4088°W)
Time: 04:06:07
(UTC-04:00)

Envisat - Pass Details

Date: 11 October 2017
Orbit: 764 x 766 km, 98.2° (Epoch: 22 October)

Event Time Altitude Azimuth Distance (km) Brightness Sun altitude
Exits shadow 22:10:56 19° 280° (W) 1,777 5.4 -39.4°
Drops below altitude 10° 22:13:46 10° 314° (NW) 2,308 6.1 -39.9°
Sets 22:16:44 0° 332° (NNW) 3,239 6.9 -40.3°
